Terminal Aerodrome Forecast
Issued by NWS Jackson, MS

Home | Current Version | Previous Version | Text Only | Print | Product List | Glossary On
Versions: 1 2 3 4 5 6 7 8 9 10 11 12 13 14 15
000
FTUS44 KMEG 201100
TAFTUP
TAF
KTUP 201130Z 2012/2112 20006KT P6SM BKN250
     FM210000 19003KT P6SM FEW050 BKN150
     FM211100 19003KT P6SM BKN050 BKN150=

USA.gov is the U.S. government's official web portal to all federal, state and local government web resources and services.